[[{"header":{"parameterUnit":"m.s-1","parameterCategory":1,"la1":30.2991,"la2":30.254,"lo1":-89.0895,"lo2":-89.0444,"dy":0.0017,"dx":0.0017,"nx":28,"ny":28,"refTime":"2025-08-15T03:00:00:Z","depth":0,"parameterNumber":2,"parameterNumberName":"U-component_of_WINDS"},"data":[0,0,0,0,0,0,0,0,0,0,0,0,0,0,0,0,0,0,0,0,0,0,0,0,0,0,0,0,0,0,0,0,0,0,0,0,0,0,0,0,0,0,0,0,0,0,0,0,0,0,0,0,0,0,0,0,0,0,1.4031,1.4032,0,1.414,1.4141,1.4142,1.4149,1.4148,1.4147,1.4146,1.4259,1.4263,1.4267,0,0,0,0,0,0,0,0,0,0,0,0,0,1.3831,1.3835,1.4031,1.4032,1.4034,1.4139,1.4141,1.4142,1.415,1.4148,1.4147,1.4145,1.4257,1.4262,1.4267,0,0,0,0,0,0,0,0,0,0,0,0,0,1.3926,1.3836,1.4031,1.405,1.4053,1.4139,1.4141,1.4143,1.415,1.4148,1.4146,1.4145,1.4256,1.4262,1.4268,1.4343,0,0,1.4287,1.429,0,0,0,0,0,0,0,0,1.3921,1.3934,1.4046,1.4049,1.4052,1.4129,1.4112,1.421,1.415,1.4113,1.4146,1.4144,1.4217,1.4227,1.4251,1.4348,1.4353,1.4288,1.4291,1.4294,1.4296,0,0,0,0,0,0,0,1.3914,1.3929,1.4074,1.4047,1.4051,1.4054,1.4065,1.413,1.4174,1.4116,1.4117,1.413,1.4219,1.4245,1.4254,1.4355,1.4287,1.4293,1.4297,1.4299,1.4518,1.452,0,0,0,0,0,0,1.3904,1.3924,1.407,1.4077,1.3981,1.4059,1.4072,1.4106,1.4173,1.4182,1.4131,1.413,1.4235,1.4246,1.4258,1.4349,1.4294,1.43,1.4303,1.4516,1.4519,1.4521,0,0,0,0,0,0,1.39,1.3917,1.4066,1.4001,1.402,1.4064,1.4103,1.4109,1.4136,1.4185,1.4193,1.415,1.4234,1.4249,1.4321,1.4353,1.4303,1.4308,1.4514,1.4517,1.452,1.4533,0,0,0,0,0,0,1.3894,1.3915,1.3944,1.4001,1.4023,1.4128,1.4105,1.4113,1.4146,1.4145,1.4204,1.4212,1.4234,1.4312,1.4328,1.4361,1.4313,1.4511,1.4515,1.4519,1.453,1.4536,1.4541,0,0,0,0,0,1.3887,1.3944,1.3945,1.3963,1.406,1.4129,1.4142,1.4165,1.4149,1.4178,1.4209,1.4211,1.4347,1.4319,1.4337,1.4372,1.4509,1.4514,1.4518,1.4527,1.4535,1.4541,0,0,0,0,0,0,1.389,1.3952,1.3954,1.4032,1.4075,1.4131,1.4168,1.4173,1.4222,1.4219,1.4246,1.426,1.4331,1.4359,1.4327,1.4448,1.4426,1.4435,1.4427,1.4435,1.444,1.4432,1.4318,0,0,0,0,0,1.39,1.3951,1.4002,1.4065,1.4087,1.4124,1.4155,1.4169,1.4215,1.4234,1.4271,1.4316,1.4369,1.4404,1.4455,1.4534,1.4547,1.4567,1.4573,1.4577,1.4584,1.4627,1.4636,1.4536,1.4536,1.4536,0,0,1.392,1.396,1.3991,1.4067,1.4102,1.4154,1.4139,1.4195,1.4234,1.4243,1.4313,1.4341,1.4394,1.4469,1.4505,1.4495,1.4614,1.4583,1.4586,1.4591,1.4633,1.4642,1.465,1.4539,1.4539,1.4538,0,0,1.3984,1.402,1.4076,1.4112,1.4165,1.4189,1.4203,1.4258,1.4277,1.4347,1.4354,1.4401,1.4492,1.4529,1.456,1.4637,1.464,1.4653,1.4683,1.4725,1.4733,1.474,1.4766,1.4776,1.466,1.466,1.466,0,1.4003,1.4082,1.4105,1.4161,1.4194,1.4203,1.426,1.4293,1.4361,1.4384,1.4372,1.4486,1.4522,1.4606,1.4624,1.4649,1.4665,1.4646,1.473,1.4737,1.4744,1.477,1.478,1.4661,1.4661,1.4661,1.4661,0,1.4102,1.4157,1.4196,1.426,1.4298,1.4354,1.4385,1.4421,1.4431,1.4456,1.4528,1.4571,1.4631,1.4653,1.4664,1.4738,1.473,1.4724,1.4702,1.4754,1.4779,1.4789,1.4663,1.4662,1.4662,1.4662,0,0,1.4171,1.4247,1.4261,1.429,1.4349,1.4392,1.4448,1.4507,1.4536,1.4582,1.463,1.4707,1.4701,1.4735,1.4751,1.4787,1.4845,1.4776,1.4778,1.4787,1.4928,1.4932,1.4943,1.4847,1.4849,1.4851,1.4923,0,1.4241,1.4341,1.4363,1.445,1.45,1.4509,1.4558,1.46,1.4625,1.4672,1.47,1.4753,1.4741,1.4762,1.4799,1.483,1.4873,1.4825,1.4891,1.4894,1.4877,1.4956,1.496,1.5027,1.4933,1.4935,1.4936,0,1.4336,1.4384,1.4475,1.4527,1.4549,1.4593,1.4647,1.4692,1.4739,1.4755,1.4793,1.4804,1.4864,1.4839,1.4921,1.4888,1.4916,1.4936,1.4939,1.4945,1.4917,1.4964,1.5049,1.5058,1.4952,1.495,1.4949,0,1.4376,1.4463,1.4529,1.4554,1.4616,1.4647,1.4674,1.472,1.4753,1.4801,1.4823,1.4877,1.4907,1.4949,1.4975,1.4955,1.5054,1.5032,1.5068,1.5068,1.5088,1.5086,1.5178,1.5108,1.5108,1.5108,1.5107,0,1.4452,1.4507,1.4548,1.4588,1.465,1.4675,1.4735,1.4763,1.4804,1.4849,1.4861,1.4904,1.4936,1.4983,1.5004,1.5067,1.5081,1.5095,1.51,1.5094,1.5092,1.5112,1.5108,1.511,1.511,1.5109,1.5109,0,1.4506,1.4536,1.4608,1.4661,1.4676,1.4719,1.4765,1.4804,1.4829,1.4887,1.4902,1.4941,1.4997,1.5027,1.5098,1.5112,1.5183,1.5186,1.5167,1.5168,1.5202,1.5198,1.531,1.5325,1.5245,1.5246,1.5247,0,1.4552,1.4594,1.4652,1.4683,1.4711,1.4761,1.4795,1.4822,1.4856,1.4913,1.4946,1.5002,1.5049,1.5138,1.5173,1.5227,1.523,1.5265,1.5238,1.523,1.5229,1.5226,1.523,1.527,1.5271,1.5271,1.5272,0,1.4629,1.4642,1.469,1.4743,1.4783,1.4826,1.4869,1.4894,1.4927,1.4965,1.5022,1.5058,1.513,1.5186,1.5242,1.5271,1.5277,1.528,1.5291,1.5285,1.5271,1.5278,1.5179,1.5277,1.5277,1.5276,1.5276,1.5276,1.468,1.4718,1.4764,1.4817,1.4852,1.4892,1.4931,1.4961,1.5009,1.5068,1.5081,1.5141,1.5187,1.5263,1.5294,1.5341,1.5334,1.535,1.5354,1.5357,1.5358,1.5264,1.5351,1.5351,1.5351,1.5351,1.5351,0,1.4757,1.4787,1.4836,1.4895,1.4936,1.4938,1.4986,1.502,1.5073,1.5115,1.516,1.5226,1.528,1.5319,1.5374,1.5404,1.5408,1.5418,1.5415,1.5421,1.5362,1.5346,1.5413,1.5413,1.5413,1.5413,1.5413,1.5413,1.4802,1.4866,1.4884,1.4965,1.4995,1.5053,1.508,1.5116,1.515,1.5222,1.5267,1.5292,1.5333,1.5391,1.5441,1.5451,1.547,1.5479,1.5489,1.5433,1.5426,1.542,1.5405,1.5483,1.5483,1.5545,1.5545,1.5546]},{"header":{"parameterUnit":"m.s-1","parameterCategory":1,"la1":30.2991,"la2":30.254,"lo1":-89.0895,"lo2":-89.0444,"dy":0.0017,"dx":0.0017,"nx":28,"ny":28,"refTime":"2025-08-15T03:00:00:Z","depth":0,"parameterNumber":3,"parameterNumberName":"V-component_of_WINDS"},"data":[0,0,0,0,0,0,0,0,0,0,0,0,0,0,0,0,0,0,0,0,0,0,0,0,0,0,0,0,0,0,0,0,0,0,0,0,0,0,0,0,0,0,0,0,0,0,0,0,0,0,0,0,0,0,0,0,0,0,1.9218,1.9219,0,1.9271,1.9272,1.9272,1.9246,1.9244,1.9243,1.9242,1.9298,1.93,1.9303,0,0,0,0,0,0,0,0,0,0,0,0,0,1.9093,1.9095,1.9218,1.9219,1.922,1.9271,1.9272,1.9273,1.9246,1.9244,1.9243,1.9241,1.9297,1.93,1.9303,0,0,0,0,0,0,0,0,0,0,0,0,0,1.9147,1.9096,1.9218,1.9213,1.9213,1.9271,1.9272,1.9273,1.9246,1.9244,1.9242,1.924,1.9296,1.93,1.9304,1.9372,0,0,1.9317,1.9318,0,0,0,0,0,0,0,0,1.9144,1.9151,1.9213,1.9213,1.9213,1.925,1.9248,1.9306,1.9247,1.9234,1.9242,1.9239,1.9284,1.9289,1.9303,1.9374,1.9377,1.9317,1.932,1.9321,1.9323,0,0,0,0,0,0,0,1.914,1.9149,1.9239,1.9214,1.9214,1.9207,1.9212,1.9259,1.927,1.9235,1.9233,1.9239,1.9283,1.9299,1.9304,1.9377,1.9317,1.9321,1.9323,1.9325,1.9501,1.9503,0,0,0,0,0,0,1.9137,1.9146,1.9238,1.9241,1.9173,1.9211,1.9217,1.924,1.9269,1.9272,1.9241,1.9238,1.9293,1.9299,1.9306,1.9384,1.9321,1.9325,1.9328,1.9499,1.9501,1.9504,0,0,0,0,0,0,1.9134,1.9145,1.9236,1.9193,1.9204,1.9215,1.9242,1.9242,1.9258,1.9274,1.9276,1.9255,1.9292,1.93,1.9354,1.9385,1.9327,1.9331,1.9496,1.9499,1.9502,1.9541,0,0,0,0,0,0,1.913,1.9144,1.9171,1.9194,1.9206,1.9283,1.9244,1.9245,1.9265,1.9262,1.9288,1.929,1.9291,1.9348,1.9358,1.939,1.9334,1.9493,1.9498,1.9501,1.9537,1.9545,1.9552,0,0,0,0,0,1.9126,1.9181,1.9172,1.9184,1.924,1.9285,1.9292,1.9291,1.9268,1.9294,1.9303,1.9289,1.938,1.9354,1.9365,1.9399,1.9491,1.9496,1.9501,1.9534,1.9544,1.9552,0,0,0,0,0,0,1.9164,1.9184,1.9175,1.9239,1.926,1.9281,1.9314,1.9303,1.9332,1.9327,1.9325,1.9331,1.9386,1.9398,1.9368,1.9463,1.9432,1.944,1.9453,1.9463,1.947,1.9466,1.9338,0,0,0,0,0,1.9179,1.9214,1.9231,1.9286,1.9296,1.9303,1.9323,1.932,1.9342,1.9351,1.9365,1.9387,1.942,1.9442,1.9474,1.9539,1.9542,1.9567,1.9575,1.9581,1.9587,1.9617,1.9628,1.952,1.952,1.952,0,0,1.9213,1.9228,1.9251,1.9293,1.931,1.9345,1.9311,1.9351,1.9377,1.9358,1.9408,1.9419,1.9443,1.9501,1.9528,1.9513,1.9617,1.9587,1.9592,1.9594,1.9623,1.9634,1.9643,1.9523,1.9522,1.9522,0,0,1.929,1.9306,1.9352,1.9367,1.9391,1.9394,1.9405,1.9426,1.9432,1.9482,1.9467,1.9497,1.9556,1.9572,1.9588,1.9666,1.9653,1.9677,1.9716,1.9746,1.9755,1.9762,1.9787,1.9796,1.9683,1.9683,1.9683,0,1.9328,1.9381,1.9377,1.9416,1.9434,1.9416,1.946,1.9476,1.951,1.9522,1.9505,1.9574,1.9589,1.9649,1.9667,1.9682,1.9693,1.9674,1.9754,1.9761,1.9768,1.9792,1.9801,1.9686,1.9685,1.9685,1.9685,0,1.9424,1.9461,1.9494,1.9524,1.9546,1.9588,1.9589,1.9611,1.9605,1.961,1.9659,1.9676,1.9709,1.9723,1.9719,1.9781,1.9771,1.9754,1.9723,1.9781,1.9803,1.9812,1.9689,1.9688,1.9688,1.9687,0,0,1.953,1.9553,1.9565,1.9576,1.9599,1.9627,1.9667,1.9697,1.9714,1.9737,1.9769,1.9816,1.9799,1.9817,1.9814,1.9841,1.9897,1.982,1.982,1.9831,1.9962,1.9973,1.9984,1.9888,1.989,1.9892,1.9959,0,1.9606,1.9675,1.967,1.9734,1.9765,1.9747,1.9781,1.9797,1.9802,1.9829,1.9834,1.9866,1.9843,1.9853,1.9878,1.9885,1.9923,1.988,1.9916,1.9918,1.9909,1.9996,2.0009,2.0072,1.9968,1.997,1.9971,0,1.9706,1.9728,1.9795,1.9808,1.9821,1.9852,1.9876,1.9903,1.992,1.9921,1.9939,1.9931,1.9969,1.9937,1.9988,1.9959,1.9973,1.9978,1.998,1.9983,1.9947,1.9998,2.0092,2.0101,1.9985,1.9984,1.9983,0,1.9772,1.9819,1.9864,1.9874,1.9892,1.9913,1.9922,1.9937,1.9954,1.9976,1.9986,2.0013,2.0027,2.0047,2.0045,2.0022,2.0095,2.0064,2.0096,2.0096,2.0112,2.011,2.0207,2.0124,2.0124,2.0124,2.0124,0,1.9857,1.9897,1.9893,1.992,1.9964,1.9957,2.0001,2.0007,2.002,2.0047,2.0033,2.0059,2.0055,2.008,2.0079,2.0119,2.0127,2.0127,2.0126,2.0127,2.0127,2.0136,2.0131,2.0126,2.0126,2.0125,2.0125,0,1.9938,1.9937,1.9983,1.9994,1.9998,2.003,2.0039,2.0064,2.0065,2.0099,2.0107,2.011,2.0139,2.0138,2.0172,2.0171,2.0219,2.0214,2.0213,2.0211,2.0241,2.0237,2.0346,2.0358,2.0269,2.027,2.0271,0,1.9992,2.0022,2.0034,2.005,2.0059,2.0087,2.0102,2.0096,2.0113,2.0132,2.0154,2.0181,2.0202,2.0249,2.0254,2.0278,2.0272,2.0308,2.0276,2.0275,2.0269,2.0267,2.0268,2.0314,2.0315,2.0316,2.0317,0,2.0086,2.0082,2.0105,2.0127,2.0145,2.0163,2.0178,2.0192,2.0187,2.0207,2.0235,2.0251,2.0283,2.0309,2.0331,2.0339,2.0326,2.0327,2.0335,2.0336,2.0332,2.0331,2.0228,2.0324,2.0323,2.0323,2.0323,2.0322,2.0153,2.0177,2.0188,2.0213,2.0223,2.0237,2.0259,2.0262,2.0285,2.0309,2.0304,2.0334,2.0347,2.0376,2.0385,2.0408,2.0396,2.0408,2.0411,2.0414,2.0415,2.033,2.0413,2.0413,2.0413,2.0412,2.0412,0,2.0243,2.0248,2.0271,2.0291,2.031,2.0295,2.031,2.0327,2.0353,2.0366,2.0385,2.0415,2.0439,2.0444,2.0467,2.0484,2.0478,2.049,2.0488,2.0489,2.0427,2.0417,2.0494,2.0494,2.0494,2.0494,2.0494,2.0494,2.0293,2.0331,2.0328,2.037,2.0375,2.0403,2.0413,2.0425,2.0434,2.0467,2.0486,2.0489,2.0498,2.052,2.054,2.0541,2.0549,2.0562,2.0561,2.0502,2.0494,2.0486,2.0476,2.0565,2.0565,2.062,2.0621,2.0621]}]]